Location: Del Oro Observatory
(38.3044°N, 104.8119°W)
Time: 06:23:48
(UTC-06:00)

Cosmos 1602 Rocket - Visible Passes

Search period start: 19 April 2014 00:00
Search period end: 29 April 2014 00:00
Orbit: 606 x 635 km, 82.5° (Epoch: 18 April)

Date Brightness Start Highest point End Pass type
(mag) Time Alt. Az. Time Alt. Az. Time Alt. Az.
19 Apr 6.6 23:49:28 11° NNE 23:49:28 11° NNE 23:49:43 10° NNE visible
21 Apr 6.5 00:07:01 13° N 00:07:01 13° N 00:07:34 10° N visible
22 Apr 6.6 00:24:32 13° NNW 00:24:32 13° NNW 00:25:06 10° NNW visible
22 Apr 6.3 23:04:52 13° NNE 23:04:52 13° NNE 23:05:20 10° NNE visible
23 Apr 6.7 00:42:02 10° NNW 00:42:02 10° NNW 00:42:06 10° NNW visible
23 Apr 6.1 23:22:21 17° N 23:22:21 17° N 23:23:27 10° N visible
24 Apr 6.0 23:39:49 20° N 23:39:49 20° N 23:41:15 10° N visible
25 Apr 6.0 22:20:05 13° NE 22:20:05 13° NE 22:20:38 10° NE visible
25 Apr 6.2 23:57:15 18° NNW 23:57:15 18° NNW 23:58:43 10° NNW visible
26 Apr 5.6 22:37:30 21° NNE 22:37:30 21° NNE 22:39:06 10° NNE visible
27 Apr 6.5 00:14:39 13° NW 00:14:39 13° NW 00:15:34 10° NW visible
27 Apr 5.2 22:54:53 30° N 22:54:53 30° N 22:57:10 10° N visible
28 Apr 5.9 21:35:04 11° ENE 21:35:04 11° ENE 21:35:19 10° NE visible
28 Apr 5.3 23:12:13 32° NNW 23:12:13 32° NNW 23:14:55 10° N visible
